User: anonymous   Login
Location: Pella
(41.4080°N, 92.9160°W)
Time: 16:43:35
(UTC-05:00)
Language:

Iridium 91 - Orbit

View from above orbital plane
View from above orbital plane
View from above satellite
View from above satellite

Ground track
Ground track

The orbit data is extracted from the following two-line orbital elements,

1 27372U 02005A   16181.21965763  .00000150  00000-0  46511-4 0  9991
2 27372  86.3983  75.3765 0002106  79.6523  31.4003 14.34215386761039
Epoch (UTC): 29 June 2016 05:16:18
Eccentricity: 0.0002106
inclination: 86.3983°
perigee height: 776 km
apogee height: 779 km
right ascension of ascending node: 75.3765°
argument of perigee: 79.6523°
revolutions per day: 14.34215386
mean anomaly at epoch: 31.4003°
orbit number at epoch: 76103

The dashed part of the orbit path shows where the satellite is in the earth's shadow,  

DLR